AAL4L KBOS-KMIA

Flight info

Callsign AAL4L
Flight time 3h 1m
Altitude 32000
Route SSOXS7 SSOXS Q167 RIFLE HEADI Q97 KALDA Q101 SKARP Y313 HOAGG BNFSH3
Aircraft B738/M-SDE2E3FGHIRWXY/LB1

Departure

Time 2026-05-03 23:00
Airport Boston Logan International Airport (KBOS)

Arrival

Time 2026-05-04 02:01
Airport Miami International Airport (KMIA)
Time Latitude Longitude Altitude Speed Heading
2026-05-03 22:22 42.36136 -71.02167 29 ft 0 kts 84°
2026-05-03 22:22 42.36136 -71.02169 29 ft 0 kts 85°
2026-05-03 22:44 42.36135 -71.02185 30 ft 4 kts 85°
2026-05-03 22:44 42.36133 -71.02214 30 ft 3 kts 85°
2026-05-03 22:45 42.36132 -71.02249 30 ft 4 kts 103°
2026-05-03 22:45 42.36143 -71.02275 30 ft 3 kts 150°
2026-05-03 22:45 42.36132 -71.02272 29 ft 4 kts 168°
2026-05-03 22:45 42.36113 -71.02259 27 ft 4 kts 127°
2026-05-03 22:46 42.36110 -71.02253 27 ft 0 kts 121°
2026-05-03 22:48 42.36110 -71.02252 27 ft 1 kts 121°
2026-05-03 22:48 42.36104 -71.02239 27 ft 3 kts 121°
2026-05-03 22:48 42.36091 -71.02210 29 ft 5 kts 121°
2026-05-03 22:49 42.36071 -71.02165 26 ft 7 kts 121°
2026-05-03 22:49 42.36043 -71.02103 26 ft 9 kts 121°
2026-05-03 22:49 42.36011 -71.02025 24 ft 10 kts 119°
2026-05-03 22:49 42.35974 -71.01933 27 ft 12 kts 118°
2026-05-03 22:50 42.35932 -71.01828 27 ft 14 kts 118°
2026-05-03 22:50 42.35904 -71.01700 28 ft 15 kts 101°
2026-05-03 22:50 42.35895 -71.01576 24 ft 10 kts 71°
2026-05-03 22:50 42.35952 -71.01518 24 ft 11 kts 24°
2026-05-03 22:51 42.36028 -71.01479 26 ft 12 kts 16°
2026-05-03 22:51 42.36111 -71.01445 27 ft 13 kts 20°
2026-05-03 22:51 42.36193 -71.01407 27 ft 12 kts 18°
2026-05-03 22:51 42.36272 -71.01372 27 ft 13 kts 20°
2026-05-03 22:52 42.36331 -71.01309 24 ft 8 kts 90°
2026-05-03 22:52 42.36329 -71.01301 24 ft 0 kts 107°
2026-05-03 22:52 42.36329 -71.01300 24 ft 0 kts 112°
2026-05-03 22:53 42.36328 -71.01298 24 ft 1 kts 115°
2026-05-03 22:53 42.36314 -71.01264 28 ft 8 kts 120°
2026-05-03 22:54 42.36274 -71.01174 27 ft 15 kts 120°
2026-05-03 22:54 42.36233 -71.01065 25 ft 9 kts 109°
2026-05-03 22:54 42.36204 -71.00952 27 ft 16 kts 111°
2026-05-03 22:54 42.36153 -71.00824 26 ft 8 kts 114°
2026-05-03 22:55 42.36150 -71.00811 26 ft 1 kts 113°
2026-05-03 22:55 42.36148 -71.00806 27 ft 2 kts 113°
2026-05-03 22:55 42.36127 -71.00738 29 ft 12 kts 110°
2026-05-03 22:55 42.36096 -71.00617 26 ft 14 kts 108°
2026-05-03 22:56 42.36066 -71.00490 25 ft 14 kts 108°
2026-05-03 22:56 42.36036 -71.00368 24 ft 13 kts 108°
2026-05-03 22:56 42.36007 -71.00252 25 ft 13 kts 111°
2026-05-03 22:56 42.35976 -71.00140 25 ft 13 kts 110°
2026-05-03 22:57 42.35951 -71.00029 24 ft 12 kts 97°
2026-05-03 22:57 42.35961 -70.99917 24 ft 12 kts 77°
2026-05-03 22:57 42.35980 -70.99810 27 ft 12 kts 76°
2026-05-03 22:57 42.36001 -70.99702 24 ft 13 kts 74°
2026-05-03 22:58 42.36026 -70.99561 24 ft 18 kts 79°
2026-05-03 22:58 42.36061 -70.99364 24 ft 25 kts 75°
2026-05-03 22:58 42.36104 -70.99113 24 ft 30 kts 69°
2026-05-03 22:58 42.36141 -70.98903 24 ft 24 kts 96°
2026-05-03 22:59 42.36026 -70.98834 24 ft 20 kts 210°
2026-05-03 22:59 42.35976 -70.99039 28 ft 45 kts 257°
2026-05-03 22:59 42.35835 -70.99843 24 ft 129 kts 256°
2026-05-03 22:59 42.35562 -71.01299 328 ft 175 kts 259°
2026-05-03 23:00 42.35193 -71.02999 915 ft 210 kts 248°
2026-05-03 23:00 42.34242 -71.04686 1290 ft 247 kts 220°
2026-05-03 23:00 42.32876 -71.06245 2145 ft 259 kts 220°
2026-05-03 23:00 42.31611 -71.07768 3719 ft 227 kts 221°
2026-05-03 23:01 42.30500 -71.09140 5067 ft 209 kts 221°
2026-05-03 23:01 42.29392 -71.10492 5636 ft 220 kts 216°
2026-05-03 23:01 42.27973 -71.11377 6030 ft 240 kts 193°
2026-05-03 23:01 42.26273 -71.11513 6740 ft 252 kts 176°
2026-05-03 23:02 42.24579 -71.10740 7523 ft 262 kts 158°
2026-05-03 23:02 42.22971 -71.09570 8420 ft 264 kts 158°
2026-05-03 23:02 42.21323 -71.08376 9101 ft 272 kts 158°
2026-05-03 23:02 42.20209 -71.07571 9620 ft 275 kts 159°
2026-05-03 23:03 42.18503 -71.06346 10283 ft 281 kts 159°
2026-05-03 23:03 42.16709 -71.05065 10534 ft 304 kts 159°
2026-05-03 23:03 42.14777 -71.03660 10729 ft 328 kts 156°
2026-05-03 23:03 42.12785 -71.01928 10913 ft 353 kts 152°
2026-05-03 23:04 42.10714 -70.99965 11117 ft 373 kts 150°
2026-05-03 23:04 42.08579 -70.97900 11615 ft 382 kts 150°
2026-05-03 23:04 42.06421 -70.95820 12300 ft 385 kts 151°
2026-05-03 23:04 42.04210 -70.93711 13002 ft 389 kts 151°
2026-05-03 23:05 42.01972 -70.91601 13653 ft 393 kts 152°
2026-05-03 23:05 41.99707 -70.89482 14097 ft 401 kts 152°
2026-05-03 23:05 41.97422 -70.87354 14568 ft 407 kts 152°
2026-05-03 23:05 41.95083 -70.85177 15117 ft 411 kts 152°
2026-05-03 23:06 41.92718 -70.82973 15691 ft 415 kts 153°
2026-05-03 23:06 41.90332 -70.80756 16232 ft 420 kts 153°
2026-05-03 23:06 41.87906 -70.78531 16753 ft 423 kts 156°
2026-05-03 23:06 41.85260 -70.77029 17229 ft 406 kts 177°
2026-05-03 23:07 41.82504 -70.76860 17842 ft 391 kts 194°
2026-05-03 23:07 41.79880 -70.77584 18356 ft 381 kts 207°
2026-05-03 23:07 41.77525 -70.79092 18842 ft 374 kts 216°
2026-05-03 23:07 41.75261 -70.80817 19423 ft 374 kts 217°
2026-05-03 23:08 41.73014 -70.82554 19983 ft 374 kts 217°
2026-05-03 23:08 41.70749 -70.84295 20478 ft 376 kts 217°
2026-05-03 23:08 41.68469 -70.86028 20979 ft 378 kts 217°
2026-05-03 23:08 41.66174 -70.87756 21488 ft 378 kts 217°
2026-05-03 23:09 41.63878 -70.89476 22001 ft 380 kts 216°
2026-05-03 23:09 41.61568 -70.91203 22389 ft 383 kts 216°
2026-05-03 23:09 41.59245 -70.92936 22867 ft 383 kts 216°
2026-05-03 23:09 41.56985 -70.94793 23332 ft 377 kts 223°
2026-05-03 23:10 41.54996 -70.97044 23689 ft 375 kts 228°
2026-05-03 23:10 41.53167 -70.99537 23991 ft 374 kts 233°
2026-05-03 23:10 41.51618 -71.02262 24308 ft 373 kts 239°
2026-05-03 23:10 41.50187 -71.05147 24658 ft 373 kts 239°
2026-05-03 23:11 41.48755 -71.08042 25009 ft 374 kts 239°
2026-05-03 23:11 41.47314 -71.10947 25282 ft 377 kts 239°
2026-05-03 23:11 41.45864 -71.13858 25584 ft 378 kts 239°
2026-05-03 23:11 41.44400 -71.16786 25900 ft 378 kts 239°
2026-05-03 23:12 41.42945 -71.19688 26290 ft 377 kts 239°
2026-05-03 23:12 41.41479 -71.22609 26500 ft 380 kts 239°
2026-05-03 23:12 41.40005 -71.25544 26778 ft 381 kts 239°
2026-05-03 23:12 41.38533 -71.28470 27227 ft 379 kts 239°
2026-05-03 23:13 41.37073 -71.31366 27751 ft 375 kts 239°
2026-05-03 23:13 41.35623 -71.34242 28142 ft 374 kts 239°
2026-05-03 23:13 41.34172 -71.37114 28505 ft 374 kts 239°
2026-05-03 23:13 41.32722 -71.39979 28935 ft 372 kts 239°
2026-05-03 23:14 41.31287 -71.42812 29415 ft 369 kts 239°
2026-05-03 23:14 41.29852 -71.45642 29802 ft 368 kts 239°
2026-05-03 23:14 41.28419 -71.48468 30143 ft 368 kts 239°
2026-05-03 23:14 41.27010 -71.51246 30480 ft 366 kts 239°
2026-05-03 23:15 41.25586 -71.54050 30797 ft 366 kts 239°
2026-05-03 23:15 41.24158 -71.56861 31036 ft 367 kts 239°
2026-05-03 23:15 41.22723 -71.59683 31163 ft 371 kts 239°
2026-05-03 23:15 41.21273 -71.62532 31286 ft 374 kts 239°
2026-05-03 23:16 41.19811 -71.65401 31437 ft 376 kts 239°
2026-05-03 23:16 41.18344 -71.68277 31577 ft 377 kts 239°
2026-05-03 23:16 41.16874 -71.71155 31824 ft 376 kts 239°
2026-05-03 23:16 41.15411 -71.74015 32075 ft 374 kts 239°
2026-05-03 23:17 41.13945 -71.76882 32061 ft 377 kts 239°
2026-05-03 23:17 41.10995 -71.82660 32102 ft 378 kts 239°
2026-05-03 23:18 41.08052 -71.88419 32117 ft 377 kts 239°
2026-05-03 23:18 41.05112 -71.94159 32105 ft 377 kts 239°
2026-05-03 23:19 41.02454 -72.00054 32113 ft 374 kts 247°
2026-05-03 23:19 41.00279 -72.06328 32098 ft 375 kts 247°
2026-05-03 23:20 40.98085 -72.12589 32101 ft 375 kts 247°
2026-05-03 23:20 40.95873 -72.18858 32094 ft 376 kts 247°
2026-05-03 23:21 40.93648 -72.25142 32104 ft 377 kts 247°
2026-05-03 23:21 40.91070 -72.31202 32101 ft 381 kts 238°
2026-05-03 23:22 40.85605 -72.38984 32100 ft 388 kts 230°
2026-05-03 23:22 40.81770 -72.44001 32100 ft 387 kts 231°
2026-05-03 23:23 40.77779 -72.48768 32107 ft 393 kts 226°
2026-05-03 23:23 40.73527 -72.53314 32103 ft 394 kts 226°
2026-05-03 23:24 40.69312 -72.57941 32109 ft 392 kts 229°
2026-05-03 23:24 40.65772 -72.63306 32080 ft 387 kts 236°
2026-05-03 23:25 40.62362 -72.68805 32111 ft 388 kts 235°
2026-05-03 23:25 40.58926 -72.74303 32114 ft 389 kts 235°
2026-05-03 23:26 40.55480 -72.79796 32125 ft 390 kts 235°
2026-05-03 23:26 40.52039 -72.85271 32119 ft 390 kts 235°
2026-05-03 23:27 40.48549 -72.90815 32098 ft 391 kts 235°
2026-05-03 23:27 40.45102 -72.96280 32124 ft 392 kts 235°
2026-05-03 23:28 40.41619 -73.01793 32133 ft 392 kts 235°
2026-05-03 23:28 40.38124 -73.07315 32127 ft 393 kts 235°
2026-05-03 23:29 40.34625 -73.12834 32140 ft 394 kts 235°
2026-05-03 23:29 40.31118 -73.18355 32099 ft 394 kts 235°
2026-05-03 23:30 40.27611 -73.23867 32140 ft 394 kts 235°
2026-05-03 23:30 40.24093 -73.29387 32141 ft 395 kts 235°
2026-05-03 23:31 40.20567 -73.34909 32157 ft 395 kts 234°
2026-05-03 23:31 40.17034 -73.40432 32146 ft 395 kts 234°
2026-05-03 23:32 40.13522 -73.45911 32134 ft 395 kts 235°
2026-05-03 23:32 40.09987 -73.51418 32152 ft 395 kts 235°
2026-05-03 23:33 40.06449 -73.56922 32175 ft 396 kts 235°
2026-05-03 23:33 40.02898 -73.62437 32168 ft 397 kts 235°
2026-05-03 23:34 39.99333 -73.67947 32179 ft 398 kts 233°
2026-05-03 23:34 39.95031 -73.72636 32159 ft 408 kts 221°
2026-05-03 23:35 39.89896 -73.76058 32185 ft 420 kts 211°
2026-05-03 23:35 39.84506 -73.78878 32177 ft 420 kts 211°
2026-05-03 23:36 39.79080 -73.81717 32187 ft 420 kts 211°
2026-05-03 23:36 39.76371 -73.83146 32431 ft 421 kts 211°
2026-05-03 23:36 39.73632 -73.84599 32302 ft 429 kts 211°
2026-05-03 23:37 39.68020 -73.87579 32222 ft 441 kts 210°
2026-05-03 23:37 39.62300 -73.90599 32184 ft 444 kts 210°
2026-05-03 23:38 39.56583 -73.93607 32177 ft 443 kts 210°
2026-05-03 23:38 39.50884 -73.96609 32189 ft 442 kts 210°
2026-05-03 23:39 39.45198 -73.99600 32188 ft 441 kts 210°
2026-05-03 23:39 39.39822 -74.03161 32194 ft 426 kts 223°
2026-05-03 23:40 39.35348 -74.08018 32168 ft 419 kts 228°
2026-05-03 23:40 39.30944 -74.12898 32179 ft 420 kts 228°
2026-05-03 23:41 39.26491 -74.17780 32190 ft 420 kts 228°
2026-05-03 23:41 39.22022 -74.22653 32185 ft 421 kts 228°
2026-05-03 23:42 39.17538 -74.27530 32142 ft 421 kts 228°
2026-05-03 23:42 39.13065 -74.32386 32186 ft 420 kts 228°
2026-05-03 23:43 39.08593 -74.37235 32193 ft 420 kts 228°
2026-05-03 23:43 39.04127 -74.42071 32206 ft 419 kts 228°
2026-05-03 23:44 38.99663 -74.46896 32206 ft 419 kts 228°
2026-05-03 23:44 38.95207 -74.51703 32196 ft 417 kts 229°
2026-05-03 23:45 38.90855 -74.56580 32203 ft 413 kts 231°
2026-05-03 23:45 38.86650 -74.61575 32206 ft 412 kts 231°
2026-05-03 23:46 38.82432 -74.66546 32206 ft 411 kts 231°
2026-05-03 23:46 38.78225 -74.71459 32162 ft 410 kts 231°
2026-05-03 23:47 38.73995 -74.76315 32204 ft 409 kts 229°
2026-05-03 23:47 38.69587 -74.80922 32209 ft 409 kts 227°
2026-05-03 23:48 38.65164 -74.85471 32212 ft 407 kts 228°
2026-05-03 23:48 38.60769 -74.90028 32211 ft 406 kts 228°
2026-05-03 23:49 38.56392 -74.94577 32206 ft 405 kts 228°
2026-05-03 23:49 38.52036 -74.99117 32213 ft 402 kts 229°
2026-05-03 23:50 38.48514 -75.03050 32228 ft 401 kts 230°
2026-05-03 23:50 38.44224 -75.07568 32230 ft 406 kts 226°
2026-05-03 23:51 38.39675 -75.11861 32197 ft 407 kts 225°
2026-05-03 23:51 38.35122 -75.16128 32219 ft 406 kts 226°
2026-05-03 23:52 38.30590 -75.20410 32229 ft 405 kts 226°
2026-05-03 23:52 38.26068 -75.24695 32231 ft 405 kts 226°
2026-05-03 23:53 38.21547 -75.28974 32230 ft 405 kts 226°
2026-05-03 23:53 38.17021 -75.33251 32224 ft 404 kts 226°
2026-05-03 23:54 38.12511 -75.37507 32223 ft 404 kts 226°
2026-05-03 23:54 38.08000 -75.41758 32226 ft 404 kts 226°
2026-05-03 23:55 38.03459 -75.45978 32224 ft 406 kts 224°
2026-05-03 23:55 37.98771 -75.50020 32166 ft 408 kts 224°
2026-05-03 23:56 37.94103 -75.54024 32232 ft 407 kts 224°
2026-05-03 23:56 37.89429 -75.58072 32245 ft 407 kts 224°
2026-05-03 23:57 37.84248 -75.61300 32257 ft 433 kts 206°
2026-05-03 23:57 37.81259 -75.62073 32233 ft 446 kts 198°
2026-05-03 23:57 37.78091 -75.62153 32242 ft 464 kts 187°
2026-05-03 23:58 37.71638 -75.61331 32241 ft 465 kts 186°
2026-05-03 23:58 37.68432 -75.61112 32240 ft 454 kts 193°
2026-05-03 23:58 37.65360 -75.61529 32253 ft 439 kts 201°
2026-05-03 23:59 37.59368 -75.62913 32242 ft 438 kts 202°
2026-05-03 23:59 37.53376 -75.64276 32247 ft 438 kts 201°
2026-05-04 00:00 37.47370 -75.65591 32249 ft 438 kts 201°
2026-05-04 00:00 37.41367 -75.66883 32252 ft 438 kts 201°
2026-05-04 00:01 37.35367 -75.68171 32254 ft 437 kts 201°
2026-05-04 00:01 37.29370 -75.69458 32221 ft 437 kts 201°
2026-05-04 00:02 37.23385 -75.70740 32256 ft 436 kts 201°
2026-05-04 00:02 37.17418 -75.72018 32270 ft 435 kts 201°
2026-05-04 00:03 37.11445 -75.73295 32264 ft 435 kts 201°
2026-05-04 00:03 37.05601 -75.74926 32273 ft 420 kts 210°
2026-05-04 00:04 37.02956 -75.76363 32269 ft 408 kts 219°
2026-05-04 00:04 37.00525 -75.78084 32283 ft 407 kts 219°
2026-05-04 00:04 36.95580 -75.81572 32276 ft 409 kts 219°
2026-05-04 00:05 36.90601 -75.85048 32265 ft 411 kts 218°
2026-05-04 00:05 36.85589 -75.88523 32216 ft 412 kts 218°
2026-05-04 00:06 36.80559 -75.91999 32245 ft 413 kts 218°
2026-05-04 00:06 36.75520 -75.95477 32252 ft 414 kts 218°
2026-05-04 00:07 36.70470 -75.98958 32267 ft 415 kts 218°
2026-05-04 00:07 36.65414 -76.02437 32268 ft 415 kts 218°
2026-05-04 00:08 36.60359 -76.05910 32256 ft 414 kts 218°
2026-05-04 00:08 36.55337 -76.09355 32273 ft 414 kts 218°
2026-05-04 00:09 36.50289 -76.12814 32274 ft 414 kts 218°
2026-05-04 00:09 36.45238 -76.16270 32280 ft 415 kts 217°
2026-05-04 00:10 36.40185 -76.19722 32263 ft 414 kts 217°
2026-05-04 00:10 36.35134 -76.23167 32271 ft 414 kts 217°
2026-05-04 00:11 36.30081 -76.26608 32280 ft 414 kts 217°
2026-05-04 00:11 36.25023 -76.30048 32276 ft 415 kts 217°
2026-05-04 00:12 36.19988 -76.33468 32240 ft 415 kts 217°
2026-05-04 00:12 36.14930 -76.36897 32262 ft 414 kts 217°
2026-05-04 00:13 36.09865 -76.40326 32281 ft 414 kts 217°
2026-05-04 00:13 36.04803 -76.43749 32286 ft 415 kts 217°
2026-05-04 00:14 35.99769 -76.47147 32288 ft 414 kts 217°
2026-05-04 00:14 35.94715 -76.50555 32295 ft 413 kts 216°
2026-05-04 00:15 35.89668 -76.53952 32291 ft 413 kts 216°
2026-05-04 00:15 35.84537 -76.57210 32271 ft 416 kts 214°
2026-05-04 00:16 35.79341 -76.60365 32268 ft 416 kts 214°
2026-05-04 00:16 35.74154 -76.63526 32242 ft 416 kts 214°
2026-05-04 00:17 35.68976 -76.66700 32263 ft 415 kts 214°
2026-05-04 00:17 35.63806 -76.69873 32274 ft 415 kts 214°
2026-05-04 00:18 35.58638 -76.73042 32273 ft 415 kts 214°
2026-05-04 00:18 35.53470 -76.76206 32270 ft 415 kts 214°
2026-05-04 00:19 35.48307 -76.79361 32269 ft 413 kts 214°
2026-05-04 00:19 35.43197 -76.82480 32273 ft 413 kts 214°
2026-05-04 00:20 35.38052 -76.85616 32274 ft 413 kts 214°
2026-05-04 00:20 35.32877 -76.88767 32284 ft 413 kts 214°
2026-05-04 00:21 35.27756 -76.91880 32276 ft 414 kts 214°
2026-05-04 00:21 35.22604 -76.95016 32276 ft 413 kts 214°
2026-05-04 00:22 35.17485 -76.98219 32288 ft 413 kts 214°
2026-05-04 00:22 35.12365 -77.01439 32302 ft 413 kts 214°
2026-05-04 00:23 35.07247 -77.04648 32300 ft 414 kts 214°
2026-05-04 00:23 35.02119 -77.07851 32295 ft 413 kts 214°
2026-05-04 00:24 34.96997 -77.11044 32298 ft 413 kts 214°
2026-05-04 00:24 34.91877 -77.14231 32298 ft 413 kts 214°
2026-05-04 00:25 34.86763 -77.17411 32292 ft 413 kts 214°
2026-05-04 00:25 34.81678 -77.20568 32244 ft 412 kts 214°
2026-05-04 00:26 34.76590 -77.23721 32282 ft 410 kts 214°
2026-05-04 00:26 34.71504 -77.26870 32306 ft 410 kts 214°
2026-05-04 00:27 34.66424 -77.30012 32290 ft 409 kts 214°
2026-05-04 00:27 34.61347 -77.33147 32290 ft 409 kts 214°
2026-05-04 00:28 34.56269 -77.36278 32289 ft 408 kts 214°
2026-05-04 00:28 34.51206 -77.39393 32285 ft 408 kts 213°
2026-05-04 00:29 34.45745 -77.41647 32290 ft 424 kts 199°
2026-05-04 00:29 34.39894 -77.42758 32300 ft 426 kts 198°
2026-05-04 00:30 34.34080 -77.43860 32252 ft 425 kts 198°
2026-05-04 00:30 34.28262 -77.44985 32295 ft 422 kts 199°
2026-05-04 00:31 34.22469 -77.46116 32304 ft 421 kts 199°
2026-05-04 00:31 34.16690 -77.47246 32309 ft 420 kts 199°
2026-05-04 00:32 34.10922 -77.48372 32312 ft 419 kts 199°
2026-05-04 00:32 34.05172 -77.49491 32312 ft 418 kts 198°
2026-05-04 00:33 33.96572 -77.51163 32321 ft 417 kts 199°
2026-05-04 00:34 33.90850 -77.52273 32315 ft 416 kts 198°
2026-05-04 00:34 33.85166 -77.53375 32315 ft 416 kts 198°
2026-05-04 00:35 33.79447 -77.54482 32312 ft 416 kts 198°
2026-05-04 00:35 33.73738 -77.55585 32321 ft 416 kts 198°
2026-05-04 00:36 33.68018 -77.56689 32327 ft 416 kts 198°
2026-05-04 00:36 33.62298 -77.57792 32326 ft 417 kts 198°
2026-05-04 00:37 33.56614 -77.59025 32318 ft 410 kts 204°
2026-05-04 00:37 33.51160 -77.60933 32332 ft 408 kts 205°
2026-05-04 00:38 33.45747 -77.62892 32338 ft 409 kts 205°
2026-05-04 00:38 33.40277 -77.64836 32334 ft 410 kts 204°
2026-05-04 00:39 33.34789 -77.66761 32332 ft 411 kts 204°
2026-05-04 00:39 33.29297 -77.68676 32326 ft 411 kts 204°
2026-05-04 00:40 33.24730 -77.70266 32335 ft 411 kts 204°
2026-05-04 00:40 33.19241 -77.72176 32340 ft 411 kts 204°
2026-05-04 00:41 33.13756 -77.74082 32340 ft 411 kts 204°
2026-05-04 00:41 33.08264 -77.75989 32338 ft 411 kts 204°
2026-05-04 00:42 33.02778 -77.77890 32329 ft 410 kts 204°
2026-05-04 00:42 32.97286 -77.79792 32347 ft 411 kts 204°
2026-05-04 00:43 32.91791 -77.81692 32346 ft 411 kts 204°
2026-05-04 00:43 32.86295 -77.83590 32347 ft 411 kts 204°
2026-05-04 00:44 32.80832 -77.85474 32341 ft 412 kts 204°
2026-05-04 00:44 32.75323 -77.87372 32343 ft 412 kts 204°
2026-05-04 00:45 32.69816 -77.89266 32349 ft 411 kts 204°
2026-05-04 00:45 32.64308 -77.91135 32345 ft 412 kts 203°
2026-05-04 00:46 32.58766 -77.92928 32349 ft 412 kts 203°
2026-05-04 00:46 32.53269 -77.94694 32341 ft 412 kts 203°
2026-05-04 00:47 32.47741 -77.96478 32354 ft 412 kts 203°
2026-05-04 00:47 32.42207 -77.98267 32345 ft 412 kts 202°
2026-05-04 00:48 32.36657 -78.00058 32347 ft 413 kts 202°
2026-05-04 00:48 32.31111 -78.01846 32314 ft 413 kts 202°
2026-05-04 00:49 32.25577 -78.03629 32338 ft 412 kts 202°
2026-05-04 00:49 32.20031 -78.05413 32349 ft 412 kts 202°
2026-05-04 00:50 32.14494 -78.07192 32348 ft 413 kts 202°
2026-05-04 00:50 32.08951 -78.08971 32348 ft 413 kts 202°
2026-05-04 00:51 32.03409 -78.10747 32325 ft 412 kts 203°
2026-05-04 00:51 31.97917 -78.12504 32342 ft 411 kts 203°
2026-05-04 00:52 31.92393 -78.14270 32345 ft 411 kts 203°
2026-05-04 00:52 31.86864 -78.16036 32349 ft 411 kts 203°
2026-05-04 00:53 31.81333 -78.17800 32350 ft 411 kts 203°
2026-05-04 00:53 31.75804 -78.19561 32350 ft 411 kts 203°
2026-05-04 00:54 31.70315 -78.21307 32344 ft 411 kts 203°
2026-05-04 00:54 31.64794 -78.23061 32342 ft 411 kts 203°
2026-05-04 00:55 31.59273 -78.24813 32354 ft 411 kts 203°
2026-05-04 00:55 31.53745 -78.26565 32344 ft 411 kts 203°
2026-05-04 00:56 31.48244 -78.28306 32339 ft 409 kts 203°
2026-05-04 00:56 31.42801 -78.30076 32347 ft 407 kts 204°
2026-05-04 00:57 31.37352 -78.31915 32345 ft 407 kts 204°
2026-05-04 00:57 31.31917 -78.33747 32346 ft 407 kts 204°
2026-05-04 00:58 31.26476 -78.35571 32312 ft 407 kts 204°
2026-05-04 00:58 31.21015 -78.37395 32332 ft 405 kts 204°
2026-05-04 00:59 31.15597 -78.39201 32342 ft 404 kts 204°
2026-05-04 00:59 31.10227 -78.40991 32342 ft 404 kts 204°
2026-05-04 01:00 31.04819 -78.42790 32357 ft 404 kts 204°
2026-05-04 01:00 30.99413 -78.44587 32313 ft 404 kts 204°
2026-05-04 01:01 30.94020 -78.46376 32337 ft 403 kts 204°
2026-05-04 01:01 30.88628 -78.48164 32341 ft 403 kts 204°
2026-05-04 01:02 30.83231 -78.49952 32340 ft 403 kts 204°
2026-05-04 01:02 30.77840 -78.51735 32338 ft 403 kts 204°
2026-05-04 01:03 30.72437 -78.53520 32287 ft 403 kts 204°
2026-05-04 01:03 30.67052 -78.55296 32323 ft 402 kts 204°
2026-05-04 01:04 30.61676 -78.57068 32334 ft 402 kts 204°
2026-05-04 01:04 30.56291 -78.58841 32334 ft 402 kts 204°
2026-05-04 01:05 30.50914 -78.60609 32334 ft 402 kts 204°
2026-05-04 01:05 30.45532 -78.62377 32312 ft 402 kts 204°
2026-05-04 01:06 30.40185 -78.64131 32319 ft 401 kts 204°
2026-05-04 01:06 30.34813 -78.65891 32330 ft 401 kts 204°
2026-05-04 01:07 30.29440 -78.67650 32332 ft 401 kts 204°
2026-05-04 01:07 30.24063 -78.69406 32336 ft 402 kts 204°
2026-05-04 01:08 30.18674 -78.71167 32329 ft 402 kts 204°
2026-05-04 01:08 30.13280 -78.72934 32324 ft 402 kts 204°
2026-05-04 01:09 30.07886 -78.74698 32319 ft 402 kts 204°
2026-05-04 01:09 30.02529 -78.76447 32322 ft 402 kts 204°
2026-05-04 01:10 29.97138 -78.78205 32325 ft 403 kts 204°
2026-05-04 01:10 29.91740 -78.79963 32266 ft 403 kts 204°
2026-05-04 01:11 29.86366 -78.81712 32303 ft 401 kts 204°
2026-05-04 01:11 29.80987 -78.83461 32314 ft 401 kts 204°
2026-05-04 01:12 29.75500 -78.84871 32324 ft 410 kts 197°
2026-05-04 01:12 29.69800 -78.85597 32300 ft 412 kts 195°
2026-05-04 01:13 29.64134 -78.86275 32267 ft 412 kts 196°
2026-05-04 01:13 29.58446 -78.87001 32298 ft 411 kts 196°
2026-05-04 01:14 29.52769 -78.87755 32306 ft 410 kts 196°
2026-05-04 01:14 29.47093 -78.88518 32304 ft 410 kts 196°
2026-05-04 01:15 29.41417 -78.89280 32305 ft 410 kts 196°
2026-05-04 01:15 29.35740 -78.90042 32261 ft 410 kts 196°
2026-05-04 01:16 29.30079 -78.90800 32290 ft 410 kts 196°
2026-05-04 01:16 29.24401 -78.91560 32298 ft 410 kts 196°
2026-05-04 01:17 29.18722 -78.92320 32295 ft 411 kts 196°
2026-05-04 01:17 29.13073 -78.93073 32294 ft 411 kts 196°
2026-05-04 01:18 29.07392 -78.93831 32247 ft 411 kts 196°
2026-05-04 01:18 29.01707 -78.94586 32274 ft 411 kts 196°
2026-05-04 01:19 28.96018 -78.95343 32285 ft 412 kts 196°
2026-05-04 01:19 28.90327 -78.96099 32282 ft 412 kts 196°
2026-05-04 01:20 28.84628 -78.96855 32278 ft 412 kts 196°
2026-05-04 01:20 28.78929 -78.97610 32243 ft 412 kts 196°
2026-05-04 01:21 28.73229 -78.98365 32267 ft 412 kts 196°
2026-05-04 01:21 28.67533 -78.99118 32273 ft 412 kts 196°
2026-05-04 01:22 28.61861 -78.99867 32273 ft 413 kts 196°
2026-05-04 01:22 28.56158 -79.00620 32265 ft 413 kts 196°
2026-05-04 01:23 28.50450 -79.01372 32235 ft 413 kts 196°
2026-05-04 01:23 28.44747 -79.02122 32261 ft 413 kts 196°
2026-05-04 01:24 28.39041 -79.02872 32264 ft 412 kts 196°
2026-05-04 01:24 28.33368 -79.03730 32253 ft 405 kts 202°
2026-05-04 01:25 28.28058 -79.05661 32259 ft 399 kts 207°
2026-05-04 01:25 28.22802 -79.07720 32270 ft 400 kts 206°
2026-05-04 01:26 28.17514 -79.09743 32246 ft 401 kts 206°
2026-05-04 01:26 28.13105 -79.11399 32259 ft 402 kts 206°
2026-05-04 01:27 28.06917 -79.13704 32255 ft 403 kts 206°
2026-05-04 01:27 28.01581 -79.15686 32256 ft 404 kts 206°
2026-05-04 01:28 27.96241 -79.17668 32252 ft 404 kts 205°
2026-05-04 01:28 27.91762 -79.19330 32228 ft 405 kts 205°
2026-05-04 01:29 27.86436 -79.21304 32248 ft 406 kts 205°
2026-05-04 01:29 27.81046 -79.23300 32251 ft 408 kts 205°
2026-05-04 01:30 27.75636 -79.25300 32243 ft 409 kts 205°
2026-05-04 01:30 27.70216 -79.27302 32244 ft 409 kts 205°
2026-05-04 01:31 27.64804 -79.29299 32205 ft 410 kts 205°
2026-05-04 01:31 27.59378 -79.31300 32232 ft 411 kts 205°
2026-05-04 01:32 27.53923 -79.33309 32244 ft 413 kts 205°
2026-05-04 01:32 27.48455 -79.35321 32242 ft 414 kts 205°
2026-05-04 01:33 27.42963 -79.37338 32241 ft 415 kts 205°
2026-05-04 01:33 27.37475 -79.39353 32235 ft 415 kts 205°
2026-05-04 01:34 27.31986 -79.41366 32237 ft 415 kts 205°
2026-05-04 01:34 27.26504 -79.43374 32249 ft 414 kts 205°
2026-05-04 01:35 27.21039 -79.45373 32228 ft 412 kts 205°
2026-05-04 01:35 27.15628 -79.47352 32041 ft 412 kts 205°
2026-05-04 01:35 27.12858 -79.48368 31071 ft 420 kts 205°
2026-05-04 01:36 27.10083 -79.49380 30413 ft 416 kts 204°
2026-05-04 01:36 27.07321 -79.50387 29428 ft 418 kts 204°
2026-05-04 01:36 27.04547 -79.51399 28468 ft 419 kts 204°
2026-05-04 01:36 27.01749 -79.52421 27314 ft 426 kts 204°
2026-05-04 01:37 26.98917 -79.53454 26291 ft 430 kts 204°
2026-05-04 01:37 26.96093 -79.54480 25594 ft 425 kts 204°
2026-05-04 01:37 26.93288 -79.55499 24891 ft 421 kts 204°
2026-05-04 01:37 26.90508 -79.56509 24194 ft 418 kts 204°
2026-05-04 01:38 26.87751 -79.57510 23448 ft 416 kts 204°
2026-05-04 01:38 26.84994 -79.58507 22631 ft 414 kts 203°
2026-05-04 01:38 26.82302 -79.59476 21933 ft 409 kts 203°
2026-05-04 01:38 26.79606 -79.60447 21255 ft 405 kts 203°
2026-05-04 01:39 26.76900 -79.61421 20561 ft 401 kts 203°
2026-05-04 01:39 26.74292 -79.62360 20037 ft 395 kts 202°
2026-05-04 01:39 26.71732 -79.63279 19903 ft 379 kts 203°
2026-05-04 01:39 26.69224 -79.64181 19735 ft 368 kts 203°
2026-05-04 01:40 26.66830 -79.65043 19579 ft 357 kts 203°
2026-05-04 01:40 26.64506 -79.65880 19445 ft 355 kts 203°
2026-05-04 01:40 26.62176 -79.66718 19221 ft 347 kts 203°
2026-05-04 01:40 26.59877 -79.67530 18776 ft 346 kts 202°
2026-05-04 01:41 26.57588 -79.68330 18357 ft 343 kts 202°
2026-05-04 01:41 26.55315 -79.69124 17879 ft 341 kts 202°
2026-05-04 01:41 26.53056 -79.69913 17424 ft 339 kts 202°
2026-05-04 01:41 26.50817 -79.70696 16984 ft 336 kts 202°
2026-05-04 01:42 26.48590 -79.71474 16534 ft 334 kts 202°
2026-05-04 01:42 26.46419 -79.72341 16103 ft 327 kts 212°
2026-05-04 01:42 26.44623 -79.73799 15902 ft 315 kts 226°
2026-05-04 01:42 26.43121 -79.75561 15683 ft 316 kts 230°
2026-05-04 01:43 26.41642 -79.77429 15462 ft 323 kts 230°
2026-05-04 01:43 26.40134 -79.79310 15263 ft 326 kts 230°
2026-05-04 01:43 26.38612 -79.81182 15041 ft 324 kts 230°
2026-05-04 01:43 26.37225 -79.83152 14826 ft 322 kts 237°
2026-05-04 01:44 26.35986 -79.85206 14614 ft 315 kts 238°
2026-05-04 01:44 26.34793 -79.87186 14405 ft 307 kts 237°
2026-05-04 01:44 26.33598 -79.89131 14206 ft 300 kts 237°
2026-05-04 01:44 26.32423 -79.91020 14007 ft 293 kts 237°
2026-05-04 01:45 26.31275 -79.92858 13815 ft 286 kts 237°
2026-05-04 01:45 26.30147 -79.94660 13613 ft 280 kts 237°
2026-05-04 01:45 26.27941 -79.98179 13240 ft 275 kts 237°
2026-05-04 01:46 26.26848 -79.99923 13065 ft 275 kts 237°
2026-05-04 01:46 26.25591 -80.01538 12863 ft 281 kts 219°
2026-05-04 01:46 26.23840 -80.02562 12705 ft 290 kts 202°
2026-05-04 01:46 26.21864 -80.03098 12517 ft 293 kts 196°
2026-05-04 01:47 26.19857 -80.03529 12304 ft 293 kts 195°
2026-05-04 01:47 26.17849 -80.03953 12108 ft 294 kts 195°
2026-05-04 01:47 26.15880 -80.04377 11965 ft 292 kts 195°
2026-05-04 01:47 26.13871 -80.04823 11696 ft 294 kts 195°
2026-05-04 01:48 26.11868 -80.05275 11489 ft 294 kts 195°
2026-05-04 01:48 26.09864 -80.05731 11284 ft 293 kts 195°
2026-05-04 01:48 26.07865 -80.06187 11089 ft 293 kts 195°
2026-05-04 01:48 26.05876 -80.06658 10865 ft 293 kts 197°
2026-05-04 01:49 26.03890 -80.07173 10616 ft 292 kts 197°
2026-05-04 01:49 26.01922 -80.07692 10368 ft 288 kts 197°
2026-05-04 01:49 25.99983 -80.08201 10136 ft 284 kts 197°
2026-05-04 01:49 25.98072 -80.08700 9895 ft 280 kts 197°
2026-05-04 01:50 25.96185 -80.09190 9630 ft 276 kts 197°
2026-05-04 01:50 25.94325 -80.09673 9391 ft 272 kts 197°
2026-05-04 01:50 25.92543 -80.10280 9146 ft 263 kts 213°
2026-05-04 01:50 25.91141 -80.11519 8957 ft 256 kts 227°
2026-05-04 01:51 25.89936 -80.12972 8737 ft 255 kts 230°
2026-05-04 01:51 25.88770 -80.14456 8529 ft 255 kts 234°
2026-05-04 01:51 25.88017 -80.16210 8309 ft 253 kts 256°
2026-05-04 01:51 25.87794 -80.18138 8112 ft 253 kts 266°
2026-05-04 01:52 25.87758 -80.20098 7827 ft 256 kts 268°
2026-05-04 01:52 25.87731 -80.22095 7524 ft 260 kts 268°
2026-05-04 01:52 25.87687 -80.24091 7196 ft 261 kts 267°
2026-05-04 01:52 25.87631 -80.26111 6861 ft 262 kts 266°
2026-05-04 01:53 25.87582 -80.28135 6544 ft 262 kts 270°
2026-05-04 01:53 25.88030 -80.30097 6188 ft 267 kts 293°
2026-05-04 01:53 25.88915 -80.31915 5855 ft 267 kts 296°
2026-05-04 01:53 25.89816 -80.33726 5509 ft 268 kts 296°
2026-05-04 01:54 25.90711 -80.35540 5169 ft 268 kts 296°
2026-05-04 01:54 25.91603 -80.37361 4830 ft 268 kts 296°
2026-05-04 01:54 25.92495 -80.39189 4466 ft 269 kts 296°
2026-05-04 01:54 25.93376 -80.41020 4135 ft 266 kts 294°
2026-05-04 01:55 25.93781 -80.42965 3817 ft 255 kts 270°
2026-05-04 01:55 25.93752 -80.44904 3500 ft 247 kts 268°
2026-05-04 01:55 25.93712 -80.46794 3176 ft 241 kts 268°
2026-05-04 01:55 25.93478 -80.48596 2842 ft 233 kts 247°
2026-05-04 01:56 25.92515 -80.49980 2537 ft 225 kts 218°
2026-05-04 01:56 25.91119 -80.50688 2209 ft 220 kts 191°
2026-05-04 01:56 25.89633 -80.50569 1865 ft 216 kts 155°
2026-05-04 01:56 25.88657 -80.49443 1788 ft 199 kts 109°
2026-05-04 01:57 25.88400 -80.48015 1777 ft 181 kts 102°
2026-05-04 01:57 25.88014 -80.46708 1784 ft 176 kts 112°
2026-05-04 01:57 25.87554 -80.45465 1787 ft 177 kts 114°
2026-05-04 01:57 25.87023 -80.44222 1801 ft 179 kts 117°
2026-05-04 01:58 25.86427 -80.42997 1797 ft 182 kts 119°
2026-05-04 01:58 25.85805 -80.41768 1791 ft 183 kts 120°
2026-05-04 01:58 25.85177 -80.40535 1787 ft 183 kts 120°
2026-05-04 01:58 25.84550 -80.39307 1778 ft 182 kts 120°
2026-05-04 01:59 25.83928 -80.38086 1568 ft 180 kts 120°
2026-05-04 01:59 25.83316 -80.36884 1340 ft 178 kts 119°
2026-05-04 01:59 25.82720 -80.35713 1111 ft 170 kts 119°
2026-05-04 01:59 25.82156 -80.34606 923 ft 161 kts 119°
2026-05-04 02:00 25.81610 -80.33535 709 ft 160 kts 118°
2026-05-04 02:00 25.81071 -80.32474 523 ft 157 kts 118°
2026-05-04 02:00 25.80522 -80.31409 264 ft 160 kts 118°
2026-05-04 02:00 25.79976 -80.30343 48 ft 155 kts 116°
2026-05-04 02:01 25.79499 -80.29390 14 ft 119 kts 120°
2026-05-04 02:01 25.79206 -80.28803 12 ft 39 kts 109°
2026-05-04 02:01 25.79271 -80.28702 13 ft 14 kts 355°
2026-05-04 02:01 25.79363 -80.28718 14 ft 13 kts 334°
2026-05-04 02:02 25.79417 -80.28795 14 ft 11 kts 313°
2026-05-04 02:02 25.79485 -80.28805 14 ft 10 kts 359°
2026-05-04 02:02 25.79554 -80.28806 14 ft 10 kts 359°
2026-05-04 02:02 25.79636 -80.28811 14 ft 13 kts 356°
2026-05-04 02:03 25.79755 -80.28818 14 ft 21 kts 358°
2026-05-04 02:03 25.79908 -80.28818 14 ft 22 kts 22°
2026-05-04 02:03 25.79936 -80.28699 14 ft 16 kts 87°
2026-05-04 02:03 25.79943 -80.28576 14 ft 16 kts 86°
2026-05-04 02:04 25.79948 -80.28457 14 ft 15 kts 88°
2026-05-04 02:04 25.79953 -80.28343 14 ft 14 kts 86°
2026-05-04 02:04 25.79958 -80.28235 14 ft 14 kts 88°
2026-05-04 02:04 25.79962 -80.28131 14 ft 13 kts 87°
2026-05-04 02:05 25.79966 -80.28031 14 ft 13 kts 88°
2026-05-04 02:05 25.79969 -80.27934 14 ft 12 kts 87°
2026-05-04 02:05 25.79974 -80.27839 14 ft 12 kts 86°
2026-05-04 02:05 25.79981 -80.27746 14 ft 12 kts 85°
2026-05-04 02:06 25.79988 -80.27656 14 ft 12 kts 84°
2026-05-04 02:06 25.79990 -80.27569 14 ft 11 kts 93°
2026-05-04 02:06 25.79993 -80.27479 14 ft 12 kts 88°
2026-05-04 02:06 25.79993 -80.27388 14 ft 12 kts 89°
2026-05-04 02:07 25.79986 -80.27301 15 ft 7 kts 116°
2026-05-04 02:07 25.79943 -80.27281 14 ft 7 kts 167°
2026-05-04 02:07 25.79911 -80.27273 14 ft 2 kts 168°
2026-05-04 02:07 25.79905 -80.27271 14 ft 0 kts 168°